GFSFLT1_con_3kmhel_072.txt.gz
Helicity
177 269 213 180 226 287 233 52 49 66 86 74 252 275 275 361 270 270 234 155 68 117 -28 38 58 45 163 121 92 67 68 66
231 321 276 202 240 312 141 44 51 42 72 53 69 104 186 252 313 255 132 141 54 143 103 95 150 155 143 104 110 67 83 84
267 275 245 183 185 232 72 8 57 37 46 56 39 75 72 194 174 169 148 74 151 48 91 114 183 171 124 108 113 128 120 72
270 229 186 183 117 148 97 62 81 66 49 70 74 114 196 163 123 109 86 113 198 90 57 75 82 78 86 93 175 154 97 63
228 209 186 161 110 128 108 110 95 73 70 146 158 142 203 150 194 90 61 155 185 55 -0 68 47 36 37 106 194 88 68 64
204 209 161 150 139 142 129 153 114 72 82 142 140 120 117 110 95 134 171 215 78 28 28 28 59 78 110 156 97 24 16 124
180 211 151 167 168 122 153 138 161 118 125 138 107 129 108 121 149 141 124 131 101 51 105 12 96 104 150 129 121 -19 93 148
193 244 158 170 203 142 131 135 139 167 177 148 120 100 120 137 171 153 135 120 109 128 136 93 122 166 186 140 115 131 135 188
228 197 149 154 220 173 133 130 122 154 191 184 137 51 44 109 158 135 156 144 156 147 197 132 128 197 149 149 177 154 196 217
172 171 157 158 186 185 166 161 136 140 154 153 135 98 82 118 131 119 151 93 110 99 81 98 33 112 84 116 136 88 164 169
129 150 183 143 162 158 171 150 154 183 153 132 103 99 136 134 81 144 158 151 160 142 164 170 228 150 51 39 73 80 112 143
144 136 176 133 144 170 151 130 110 190 209 172 109 93 104 121 138 139 144 158 146 144 135 186 158 155 139 128 146 200 187 155
87 86 149 164 143 168 173 140 101 97 228 195 153 108 100 121 157 197 176 163 193 195 154 128 137 105 122 155 171 188 173 127
35 62 85 147 155 154 146 133 114 106 153 210 206 183 145 131 144 167 178 157 150 130 147 180 188 179 165 156 150 141 149 151
14 35 43 89 136 154 162 141 129 117 140 187 224 242 217 183 159 145 135 145 171 178 189 158 177 167 164 146 160 186 189 161
70 92 45 59 84 127 161 165 170 171 145 158 221 245 234 212 181 172 175 168 192 198 210 211 200 195 229 239 254 265 264 255
182 115 134 108 47 110 124 150 199 198 185 163 174 200 249 252 246 240 233 223 209 213 224 238 254 254 261 284 281 270 264 267
210 222 166 245 128 116 187 99 115 184 234 218 171 178 194 244 240 232 235 254 254 250 236 255 261 262 283 291 317 319 290 289
123 160 183 199 181 181 204 290 236 143 183 202 213 180 157 169 205 205 187 183 188 192 202 219 212 202 227 253 287 305 289 273

GFSFLT1_con_3kmhel_075.txt.gz
Helicity
346 419 407 372 311 267 229 176 64 81 124 81 226 245 250 413 334 344 296 203 174 207 121 145 46 43 27 69 96 123 77 62
362 464 470 409 314 270 237 139 16 44 97 111 108 142 278 245 245 172 149 158 117 86 68 91 18 41 75 75 94 85 86 100
466 498 470 351 274 225 190 81 21 72 29 10 76 104 159 179 151 201 148 150 107 81 103 123 58 70 56 26 135 157 108 104
451 450 406 311 257 176 135 75 45 57 70 67 37 6 96 182 174 168 103 91 113 82 148 114 34 92 2 21 130 100 149 142
454 378 323 258 212 134 119 130 113 79 79 80 104 42 90 35 72 55 87 16 81 85 163 144 102 41 40 156 154 107 176 259
420 386 275 211 207 149 118 170 174 132 114 89 128 113 67 64 74 55 -1 -3 -17 70 155 100 89 93 99 117 98 79 116 177
360 333 260 203 190 174 148 152 168 158 184 146 141 107 114 99 65 56 39 42 65 89 62 4 -22 59 49 40 69 82 128 197
342 366 261 225 199 188 167 170 177 183 217 195 160 124 132 123 100 72 110 46 105 119 154 140 145 95 108 103 108 99 172 256
313 377 295 247 202 193 162 162 176 206 223 216 171 166 112 84 112 97 118 135 128 135 180 228 166 135 110 135 175 211 286 280
273 326 300 254 218 184 178 158 160 187 194 222 194 204 196 104 82 66 81 104 99 92 94 131 177 53 76 174 178 210 214 277
278 272 280 235 217 191 157 172 160 163 161 162 172 193 202 174 126 171 167 136 101 67 98 126 79 68 105 43 44 133 181 207
224 216 255 251 213 212 183 166 156 148 153 151 141 139 151 154 226 195 184 169 193 222 189 188 197 129 113 154 145 164 110 127
204 216 247 257 238 212 199 186 167 167 140 150 155 158 141 152 169 222 205 198 205 220 205 217 225 195 180 177 173 186 177 147
179 182 187 222 226 235 218 201 189 193 211 194 174 160 171 167 154 132 166 187 214 198 213 198 218 226 175 152 160 183 176 190
89 138 118 193 225 262 249 222 196 156 227 235 233 215 189 173 157 145 159 184 203 248 247 238 217 200 178 160 174 198 191 193
288 272 218 107 106 184 260 289 278 192 166 263 278 259 233 201 196 192 198 214 215 204 214 220 212 221 219 213 222 233 228 217
209 165 164 197 261 251 146 84 224 304 243 174 237 291 300 277 236 220 216 208 220 222 220 216 206 216 216 266 265 245 248 256
176 135 118 123 186 187 208 225 226 132 191 270 260 257 278 309 314 277 255 251 239 222 194 218 225 235 246 238 256 245 234 241
178 192 163 167 183 258 163 164 213 247 340 252 176 166 200 291 310 299 303 298 289 278 269 233 210 190 201 203 252 273 266 273

GFSFLT1_con_3kmhel_078.txt.gz
Helicity
407 390 365 375 296 232 238 266 194 80 89 99 107 197 251 220 178 130 197 124 107 161 205 184 165 115 73 79 63 93 103 147
412 434 412 369 326 285 250 270 99 69 94 194 86 109 226 342 204 166 156 170 158 212 173 256 303 187 91 77 122 87 139 137
400 460 420 364 318 274 233 180 65 54 89 103 153 85 182 230 244 192 207 208 188 192 220 282 206 140 98 103 101 163 149 107
405 414 415 343 301 261 207 121 61 69 77 120 122 124 208 231 268 216 276 198 157 171 189 162 151 159 182 96 101 113 137 128
393 421 427 306 250 240 207 143 69 56 82 73 83 83 92 184 141 192 103 134 149 181 132 78 185 123 167 105 86 108 170 113
372 408 391 245 236 232 227 153 117 42 39 66 70 53 37 56 120 153 142 157 131 144 105 95 141 126 160 185 104 25 164 165
342 380 328 238 224 203 215 157 151 120 75 48 79 80 58 74 93 72 132 109 82 140 106 85 142 198 181 93 -47 -70 100 149
377 362 281 277 214 177 191 142 160 180 142 102 52 59 66 75 79 79 81 44 76 47 98 98 181 142 100 12 -18 43 129 172
303 260 292 264 180 149 183 139 117 171 189 152 99 69 28 34 68 37 73 51 13 36 44 155 142 131 132 105 90 145 166 163
195 208 263 235 166 157 184 144 114 143 189 169 155 110 95 50 14 33 56 6 3 10 33 98 93 146 123 123 136 138 144 150
152 206 230 185 146 113 126 140 122 130 162 184 165 146 110 73 51 50 49 38 74 108 48 68 62 102 105 63 -9 12 93 191
145 178 196 172 131 120 118 129 114 131 138 161 162 151 126 93 101 81 71 70 91 97 81 82 134 131 106 119 126 116 93 77
139 191 199 152 130 104 108 122 138 147 148 141 151 162 170 163 104 92 99 97 95 118 87 84 93 130 132 129 128 137 145 168
187 196 156 142 130 108 97 115 127 135 149 141 123 137 178 169 150 127 105 103 93 89 111 120 107 111 129 133 124 128 170 169
315 261 131 76 97 85 74 88 104 128 133 132 138 146 155 152 150 166 176 138 124 128 123 124 134 135 114 121 153 167 158 190
373 298 257 244 201 120 51 66 114 160 168 143 153 157 159 157 164 177 197 207 186 160 149 155 151 154 184 182 170 167 171 172
363 336 320 363 335 234 174 129 85 104 178 194 183 161 163 163 166 162 175 184 205 201 201 208 207 223 213 241 245 229 215 203
282 272 258 260 284 228 238 224 171 169 157 167 141 97 142 184 207 212 213 221 206 213 220 229 243 231 240 265 258 228 206 194
130 153 228 291 267 294 220 210 242 217 211 242 237 220 210 189 134 193 225 258 277 276 255 246 227 212 234 229 260 253 229 212

GFSFLT1_con_3kmhel_081.txt.gz
Helicity
291 488 444 371 306 269 270 259 264 265 203 128 99 132 145 161 134 187 175 192 152 135 154 129 193 227 204 234 209 229 178 180
301 418 394 344 302 297 262 253 247 186 105 92 121 119 143 156 193 142 143 107 126 145 156 180 214 250 148 191 236 250 221 216
307 362 333 315 295 251 260 248 227 129 128 109 177 93 154 212 209 230 157 182 147 146 115 177 194 181 164 213 271 271 263 182
310 347 304 332 289 241 230 232 196 137 157 139 130 113 106 283 219 153 175 177 144 90 100 180 169 158 248 263 252 199 245 151
334 400 300 326 276 212 210 225 195 130 138 104 95 77 140 221 315 261 263 175 167 146 127 119 176 261 224 194 188 163 187 155
338 355 305 319 266 211 199 210 190 115 92 91 84 72 101 187 183 260 278 260 259 230 191 143 194 201 185 151 169 143 151 152
267 363 310 292 226 211 216 192 161 118 88 65 71 69 103 127 182 259 327 238 259 153 147 153 118 126 152 137 128 156 151 146
341 350 290 258 250 223 195 180 158 128 91 80 50 44 64 79 106 180 184 159 159 178 126 118 108 66 158 187 151 176 194 159
378 312 300 267 224 195 172 169 160 116 90 72 68 48 28 32 72 124 134 175 183 127 89 91 128 102 131 218 219 216 225 112
257 247 205 273 212 174 154 128 148 133 106 61 87 84 44 14 38 79 72 75 84 88 109 90 53 73 119 292 215 118 141 47
139 125 178 222 185 143 120 97 120 139 123 86 76 98 94 36 16 42 58 68 55 78 133 130 79 158 148 216 160 37 63 18
98 84 134 207 161 137 112 74 79 107 108 88 42 42 57 51 32 32 29 23 26 25 51 75 99 136 185 157 187 158 80 34
69 119 183 178 136 125 97 76 89 110 104 95 90 66 52 53 38 31 34 37 36 40 48 54 60 70 86 115 139 185 190 157
103 141 133 127 121 104 86 69 42 57 70 92 86 96 82 57 26 17 36 44 45 43 47 44 37 42 33 91 130 148 175 149
208 153 90 77 82 78 82 81 73 73 75 85 92 93 108 105 88 77 58 45 46 50 62 63 55 50 65 100 127 136 143 133
391 367 343 306 234 143 78 74 70 86 89 83 92 107 111 114 112 117 136 137 114 95 76 66 79 96 105 102 103 94 111 121
386 381 391 364 306 266 220 184 145 63 96 115 115 104 108 116 125 140 168 187 166 144 142 144 125 125 120 136 157 155 166 178
405 380 376 312 265 227 233 198 201 293 263 207 174 95 66 88 94 106 114 147 196 214 204 193 180 184 197 212 209 182 170 188
370 335 308 264 235 229 219 246 240 252 269 264 261 246 211 169 153 71 95 118 131 163 185 214 211 215 244 216 260 276 242 215

GFSFLT1_con_3kmhel_084.txt.gz
Helicity
133 185 321 408 421 398 297 255 230 224 279 257 199 148 118 134 135 126 99 177 196 278 216 192 222 214 249 254 213 248 201 160
72 188 310 378 370 368 300 264 216 229 264 213 171 140 131 134 159 141 150 118 216 351 187 167 186 188 251 299 283 242 258 256
106 177 223 290 368 358 304 230 197 209 181 155 147 193 148 136 120 219 301 325 372 149 110 120 171 213 218 266 263 347 294 203
140 120 211 298 330 348 296 211 175 176 163 155 147 208 143 70 104 282 217 224 230 152 134 134 161 184 201 251 259 305 321 212
127 154 208 262 328 330 262 198 172 165 159 142 113 106 82 75 204 242 203 198 160 110 138 156 184 190 164 180 235 303 370 269
144 125 195 229 323 305 239 198 177 183 144 113 96 107 63 71 208 321 178 169 145 158 160 141 179 182 150 167 220 220 293 295
165 117 208 247 237 233 224 205 171 170 152 115 86 116 102 101 137 236 205 198 178 141 165 158 154 119 110 167 177 174 221 227
139 199 248 268 231 213 208 200 167 156 136 130 91 79 75 81 114 232 223 249 263 187 154 180 143 138 133 187 151 111 124 181
83 205 263 289 205 203 194 178 156 132 121 123 87 72 67 80 79 98 237 294 193 212 227 184 132 132 130 86 127 95 146 161
99 217 240 214 191 188 155 151 147 122 113 128 96 77 56 55 58 79 113 102 237 211 227 292 180 132 83 76 87 124 235 173
126 230 192 149 121 178 103 109 142 118 104 108 75 76 54 41 28 58 57 74 108 173 175 133 119 103 129 32 60 187 255 238
128 134 135 142 128 146 100 122 131 105 71 78 62 35 52 64 32 8 43 67 75 74 83 112 123 113 98 82 67 108 172 247
93 124 121 126 134 121 63 104 111 88 77 65 61 63 46 23 17 25 37 43 65 82 76 43 40 82 81 107 150 148 133 163
119 114 101 103 131 99 56 87 76 65 54 34 32 54 52 40 9 11 41 57 54 59 70 55 61 73 82 103 98 130 122 114
99 107 99 137 148 97 71 73 79 70 55 41 32 18 34 54 42 30 35 43 55 60 64 58 60 63 81 92 113 113 112 121
327 260 290 278 214 161 154 149 113 99 84 70 49 40 27 34 36 45 57 65 60 66 77 79 85 96 101 112 125 124 134 152
334 329 365 371 316 276 250 197 139 94 93 80 60 69 62 60 60 59 58 56 63 82 90 91 89 95 95 120 140 143 136 127
334 386 371 379 320 241 252 221 232 243 224 183 185 155 96 83 67 84 97 93 106 115 127 136 130 143 140 124 161 170 159 156
398 438 408 367 330 399 246 284 302 312 270 228 224 175 169 156 128 153 131 85 56 81 102 117 117 274 268 259 227 172 181 170

GFSFLT1_con_3kmhel_090.txt.gz
Helicity
87 124 106 55 8 -3 29 78 155 266 324 253 214 219 234 295 293 234 176 162 111 131 124 240 345 277 258 152 69 80 60 82
56 110 123 77 7 -2 37 87 195 322 348 280 237 220 215 271 214 182 150 122 127 132 236 307 313 270 267 163 90 72 63 91
52 54 104 56 13 -2 47 80 196 259 209 188 185 206 204 191 177 165 144 97 103 154 278 258 320 285 321 142 73 99 93 102
49 42 58 44 27 38 44 90 158 169 172 178 184 191 243 178 160 178 171 140 129 205 277 244 262 387 374 137 97 86 158 110
62 24 24 35 36 81 66 92 121 132 168 167 152 163 201 162 163 183 162 172 151 295 290 237 199 181 202 133 122 143 189 138
55 11 -7 -0 45 56 67 90 96 136 136 137 136 155 114 102 104 126 77 113 135 197 214 223 235 250 159 91 85 134 137 111
92 -5 -27 13 50 53 59 81 95 125 118 131 129 139 117 90 99 100 125 172 223 205 194 247 266 207 131 137 153 176 144 127
47 17 18 23 30 46 87 79 116 116 119 127 141 102 83 64 101 144 180 248 293 325 383 445 298 247 164 157 166 162 150 157
3 49 19 11 43 64 107 85 117 100 111 122 112 88 71 76 101 142 180 247 179 275 316 336 289 241 166 150 144 159 166 182
50 59 67 62 64 57 78 80 103 90 114 129 86 76 86 77 78 134 142 216 223 260 141 165 154 141 159 149 154 174 185 155
23 67 51 78 64 59 75 86 93 90 110 110 79 82 79 79 63 80 129 159 167 122 111 127 91 125 147 163 189 202 199 164
71 60 74 40 62 77 81 102 98 104 106 90 78 89 72 70 51 36 79 80 92 86 93 85 124 132 114 130 142 158 146 134
133 159 162 54 92 105 109 110 101 90 100 78 60 67 56 55 44 25 28 60 90 70 139 45 106 78 53 79 113 130 134 106
197 176 140 82 105 115 98 113 93 85 82 74 57 51 33 40 29 21 25 13 20 33 65 94 109 112 138 116 90 110 105 54
177 239 260 75 109 120 132 122 96 92 73 65 57 46 16 10 -2 -1 8 22 25 14 9 29 52 73 100 99 94 55 58 2
141 218 317 457 275 161 163 120 106 85 69 79 73 55 26 9 -3 -15 -1 -0 5 8 15 19 30 53 61 59 59 89 84 56
153 179 264 384 431 387 341 264 180 147 182 172 123 85 59 30 4 -14 -8 -3 5 13 27 21 6 35 101 42 4 43 45 53
124 221 212 265 324 388 386 325 309 323 319 307 289 247 206 184 116 73 45 35 22 42 47 40 136 130 131 101 76 48 59 77
164 208 228 245 288 334 373 351 361 315 338 330 295 262 241 208 198 198 197 202 232 225 244 245 225 201 166 129 106 91 114 223